Date,TemperatureHighF,TemperatureAvgF,TemperatureLowF,DewpointHighF,DewpointAvgF,DewpointLowF,HumidityHigh,HumidityAvg,HumidityLow,PressureMaxIn,PressureMinIn,WindSpeedMaxMPH,WindSpeedAvgMPH,GustSpeedMaxMPH,PrecipitationSumIn
2013-4-1,68,43,21,31,25,19,92,55,19,29.96,29.85,14,3,15,0.00
2013-4-2,77,49,24,35,26,18,91,51,11,29.90,29.76,14,3,15,0.00
2013-4-3,66,50,34,40,34,30,85,57,30,29.98,29.81,17,3,20,0.00
2013-4-4,67,46,30,43,33,28,93,66,31,29.95,29.62,10,2,18,0.00
2013-4-5,67,54,44,41,34,27,80,51,23,29.74,29.60,17,6,21,0.00
2013-4-6,60,50,41,41,32,26,73,52,32,29.74,29.64,23,4,23,0.00
2013-4-7,52,40,27,42,31,26,98,73,46,29.76,29.48,17,3,17,0.14
2013-4-8,32,24,19,26,16,13,97,74,52,30.14,29.77,0,0,0,0.00
2013-4-9,46,29,12,29,20,11,94,72,41,30.20,30.02,10,2,11,0.14
2013-4-10,62,42,20,41,30,19,96,66,38,30.04,29.62,14,4,19,0.00
2013-4-11,60,44,30,40,29,23,93,61,27,29.86,29.66,16,4,17,0.00
2013-4-12,59,41,29,33,28,19,94,65,22,29.93,29.48,11,3,14,0.05
2013-4-13,56,44,26,36,21,8,84,45,18,29.58,29.33,23,6,23,0.01
2013-4-14,41,30,23,27,22,18,95,75,46,29.85,29.58,14,3,14,0.11
2013-4-15,36,26,18,26,21,17,95,82,59,30.01,29.83,14,3,16,0.01
2013-4-16,36,26,20,26,22,19,94,83,58,30.14,29.99,11,3,18,0.02
2013-4-17,47,30,15,30,20,14,96,70,28,30.15,30.05,11,2,13,0.13
2013-4-18,56,36,15,27,21,13,94,60,29,30.05,29.95,13,3,13,0.00
2013-4-19,55,43,30,36,31,25,89,64,46,29.95,29.68,17,4,21,0.00
2013-4-20,63,47,32,38,33,25,94,63,29,29.93,29.72,17,5,20,0.00
2013-4-21,34,28,23,31,24,21,96,86,68,30.13,29.93,21,3,22,0.11
2013-4-22,48,30,19,24,19,2,95,67,17,30.25,30.12,11,3,11,0.12
2013-4-23,56,35,15,29,21,13,94,63,23,30.14,29.97,16,3,16,0.00
2013-4-24,65,46,26,33,25,18,94,52,18,30.09,29.78,15,4,16,0.00
2013-4-25,72,55,41,34,24,14,65,34,11,29.88,29.69,20,4,20,0.00
2013-4-26,78,56,30,38,30,23,91,44,15,29.96,29.88,17,4,17,0.00
2013-4-27,76,61,45,36,28,14,64,32,10,29.95,29.76,29,7,29,0.02
2013-4-28,67,57,49,37,31,22,58,39,19,29.86,29.67,23,7,23,0.00
2013-4-29,61,50,36,38,28,11,68,43,18,29.69,29.44,32,8,32,0.00
2013-4-30,43,33,23,33,24,20,93,73,50,30.10,29.69,19,3,19,0.04